Location: B?ogocice
(50.2413°N, 20.2361°E)
Time: 15:13:55
(UTC+00:00)

SAR-Lupe-4 - Pass Details

Date: 21 September 2024
Orbit: 476 x 483 km, 98.1° (Epoch: 03 October)

Event Time Altitude Azimuth Distance (km) Brightness Sun altitude
Rises 01:34:18 0° 25° (NNE) 2,553 8.2 -26.1°
Reaches altitude 10° 01:36:41 10° 41° (NE) 1,666 7.2 -25.8°
Maximum altitude 01:39:35 23° 95° (E) 1,075 5.8 -25.4°
Enters shadow 01:40:36 20° 120° (ESE) 1,163 5.7 -25.3°
